Regional Weather Roundup
Issued by NWS

Home | Current Version | Previous Version | Graphics & Text | Print | Product List | Glossary On
Versions: 1 2 3 4 5 6 7 8 9 10 11 12 13 14 15 16 17 18 19 20 21 22 23 24 25 26 27 28 29 30 31 32 33 34 35 36 37 38 39 40 41 42 43 44 45 46 47 48 49 50
000
ASUS43 KFSD 230110
RWRSD

WEATHER ROUNDUP FOR SOUTH DAKOTA
NATIONAL WEATHER SERVICE SIOUX FALLS SD
800 PM CDT FRI MAY 22 2015

NOTE: "FAIR" INDICATES FEW OR NO CLOUDS BELOW 12,000 FEET WITH NO
SIGNIFICANT WEATHER AND/OR OBSTRUCTIONS TO VISIBILITY.


SDZ001>005-009-010-012>017-230200-
NORTHWEST AND NORTH CENTRAL SOUTH DAKOTA

CITY           SKY/WX    TMP DP  RH WIND       PRES   REMARKS
BUFFALO          N/A     63  36  36 SE22      29.97S
FAITH            N/A     61  37  41 SE20      30.07S
MOBRIDGE       PTSUNNY   68  39  34 S13       30.07R
$$

SDZ012>016-024>037-041>051-057-063-072>074-230200-
SOUTHWEST AND SOUTH CENTRAL SOUTH DAKOTA

CITY           SKY/WX    TMP DP  RH WIND       PRES   REMARKS
RAPID CTY ARPT CLOUDY    54  39  57 S14       30.07S
PIERRE         CLOUDY    61  43  51 S20       30.11R
CUSTER         CLOUDY    43  37  79 SE9       30.08S
ELLSWORTH AFB  CLOUDY    55  39  54 S18G24    30.06R
PHILIP         CLOUDY    57  42  57 S14G22    30.10S
PINE RIDGE     CLOUDY    49  42  77 SE13      30.09R
SPEARFISH      FAIR      55  39  54 SE12G21   30.04S
WINNER         CLOUDY    56  40  55 S14       30.15S
$$

SDZ004>011-016>023-039-040-230200-
NORTHEAST SOUTH DAKOTA

CITY           SKY/WX    TMP DP  RH WIND       PRES   REMARKS
ABERDEEN       CLOUDY    73  36  25 S13       30.09S
WATERTOWN      CLOUDY    68  40  35 S6        30.12S
BROOKINGS      CLOUDY    66  39  37 SW16G24   30.15R
SISSETON         N/A     69  35  28 E7        30.11F
$$

SDZ017-020-022-023-036>040-048>070-230200-
SOUTHEAST SOUTH DAKOTA

CITY           SKY/WX    TMP DP  RH WIND       PRES   REMARKS
SIOUX FALLS    CLOUDY    61  42  49 SW16G26   30.18R
HURON          CLOUDY    63  42  46 SW23      30.15R
CHAMBERLAIN    CLOUDY    57  43  58 S16       30.16S
MITCHELL       CLOUDY    60  43  53 SW14G23   30.18R
YANKTON        CLOUDY    61  39  44 S14G21    30.16F
$$

ABBREVIATIONS USED IN REMARKS
   TC - TEMPERATURE IN CELSIUS
  WCI - WIND CHILL INDEX
   HX - HEAT INDEX
  VSB - VISIBILITY




USA.gov is the U.S. government's official web portal to all federal, state and local government web resources and services.